Location: Newark
(48.8656°N, 2.3211°E)
Time: 15:07:15
(UTC+00:00)

Envisat - Pass Details

Date: 22 February 2019
Orbit: 764 x 766 km, 98.1° (Epoch: 16 October)

Event Time Altitude Azimuth Distance (km) Brightness Sun altitude
Rises 19:17:43 0° 194° (SSW) 3,218 6.3 -19.6°
Reaches altitude 10° 19:20:16 10° 205° (SSW) 2,297 5.7 -20.1°
Maximum altitude 19:24:42 30° 266° (W) 1,348 4.9 -20.8°
Drops below altitude 10° 19:29:10 10° 327° (NNW) 2,312 6.0 -21.5°
Sets 19:31:45 0° 338° (NNW) 3,243 6.7 -21.9°
